Skip Page Navigation
NASA JPL Caltech
NASA Logo - Jet Propulsion Laboratory + View the NASA Portal
+ Near-Earth Object (NEO) Program
Search JPL
JPL Home Earth Solar System Stars & Galaxies Technology
JPL Solar System Dynamics
BODIES ORBITS EPHEMERIDES TOOLS PHYSICAL DATA DISCOVERY FAQ SITE MAP
JPL Small-Body Database Browser
Search: [ help ]  
157301 Loreena (2004 SE20)
Classification: Main-belt Asteroid          SPK-ID: 2157301
Ephemeris | Orbit Diagram | Orbital Elements | Physical Parameters | Discovery Circumstances ]

[ show orbit diagram ]
Orbital Elements at Epoch 2457000.5 (2014-Dec-09.0) TDB
Reference: JPL 5 (heliocentric ecliptic J2000)
 Element Value Uncertainty (1-sigma)   Units 
e .1111979899096754 1.9205e-07  
a 2.687627165925952 2.9867e-08 AU
q 2.388768427448348 5.0761e-07 AU
i 3.425728373685152 1.4665e-05 deg
node 16.95240164917415 0.00014318 deg
peri 329.7528890951614 0.00015123 deg
M 125.4029458714069 5.0149e-05 deg
tp 2456439.894701513139
(2013-May-27.39470151)
0.00022203 JED
period 1609.355394746643
4.41
2.6826e-05
7.345e-08
d
yr
n .2236920453835954 3.7287e-09 deg/d
Q 2.986485904403555 3.3188e-08 AU
  Orbit Determination Parameters
   # obs. used (total)      160  
   data-arc span      19816 days (54.25 yr)  
   first obs. used      1960-09-24  
   last obs. used      2014-12-26  
   planetary ephem.      DE431  
   SB-pert. ephem.      SB431-BIG16  
   condition code      0  
   fit RMS      .54002  
   data source      ORB  
   producer      Otto Matic  
   solution date      2015-Jan-08 08:20:13  

Additional Information
 Earth MOID = 1.38301 AU 
 T_jup = 3.362 
[ show covariance matrix ]

Ephemeris | Orbit Diagram | Orbital Elements | Physical Parameters | Discovery Circumstances ]

Physical Parameter Table
Parameter Symbol Value Units Sigma Reference Notes
absolute magnitude H 16.4 mag n/a MPO273298  

157301 Loreena           Discovered 2004 Sept. 16 by A. Knöfel at Drebach.
Loreena McKennitt (b. 1957) is a Canadian singer, composer and instrumentalist. She writes and performs world music with Celtic and Middle Eastern themes.
NOTE: some special characters may not display properly (any characters within {} are an attempt to place the proper accent above a character)
Reference: 20120207/MPCPages.arcLast Updated: 2012-02-09
Ephemeris | Orbit Diagram | Orbital Elements | Physical Parameters | Discovery Circumstances ]
ABOUT SSD CREDITS/AWARDS PRIVACY/COPYRIGHT GLOSSARY LINKS
FirstGov 2015-Jan-27 03:24 UT
(server date/time)  
NASA Home Page
Site Manager:   Donald K. Yeomans
Webmaster  Alan B. Chamberlin